Regional Weather Roundup
Issued by NWS

Home | Current Version | Previous Version | Graphics & Text | Print | Product List | Glossary On
Versions: 1 2 3 4 5 6 7 8 9 10 11 12 13 14 15 16 17 18 19 20 21 22 23 24 25 26 27 28 29 30 31 32 33 34 35 36 37 38 39 40 41 42 43 44 45 46 47 48 49 50
000
ASUS43 KDTX 240010
RWRMI
MICHIGAN HOURLY REGIONAL WEATHER ROUNDUP
NATIONAL WEATHER SERVICE DETROIT/PONTIAC MI
ISSUED BY NATIONAL WEATHER SERVICE GRAND RAPIDS MI
700 PM EST THU FEB 23 2017

NOTE: "FAIR" INDICATES FEW OR NO CLOUDS BELOW 12,000 FEET WITH NO
SIGNIFICANT WEATHER AND/OR OBSTRUCTION TO VISIBILITY.

MIZ047>049-052>055-059>063-066>070-074>076-081>083-240100-
SOUTHEAST LOWER MICHIGAN

CITY           SKY/WX    TMP DP  RH WIND       PRES   REMARKS
ADRIAN         MOCLDY    56  45  66 N3        29.78S
6HR MIN TEMP:  56; 6HR MAX TEMP:  65;

ALMA           CLOUDY    43  35  73 N7        29.85R
6HR MIN TEMP:  43; 6HR MAX TEMP:  52;

ANN ARBOR      PTCLDY    54  43  66 N5        29.79R
BAD AXE        CLOUDY    38  34  84 NE7       29.86S WCI  33
6HR MIN TEMP:  38; 6HR MAX TEMP:  50;

DETROIT CITY   CLOUDY    45  38  76 NE14G25   29.82R
6HR MIN TEMP:  45; 6HR MAX TEMP:  67;

DETROIT        CLOUDY    58  43  57 NE9       29.79S
6HR MIN TEMP:  58; 6HR MAX TEMP:  68;

FLINT          MOCLDY    48  39  71 NE9       29.83R
6HR MIN TEMP:  48; 6HR MAX TEMP:  58;

GROSSE ILE     CLOUDY    52  43  71 NE17G24   29.79R
6HR MIN TEMP:  49; 6HR MAX TEMP:  67;

HILLSDALE      PTCLDY    54  43  66 N5        29.77S
HOWELL         PTCLDY    50  39  66 CALM      29.81R
6HR MIN TEMP:  50; 6HR MAX TEMP:  60;


CITY           SKY/WX    TMP DP  RH WIND       PRES   REMARKS
JACKSON        PTCLDY    52  41  66 NE7       29.80R
6HR MIN TEMP:  52; 6HR MAX TEMP:  64;

LANSING        PTCLDY    49  38  65 NE5       29.82R
6HR MIN TEMP:  49; 6HR MAX TEMP:  57;

MASON          PTCLDY    49  42  75 NE5       29.81R
MONROE         CLOUDY    55  47  72 CALM      29.77S
6HR MIN TEMP:  54; 6HR MAX TEMP:  68;

MT. CLEMENS    MOCLDY    42  38  84 NE13      29.82R
6HR MIN TEMP:  42;

PONTIAC        CLOUDY    51  40  65 NE6       29.79R
6HR MIN TEMP:  51; 6HR MAX TEMP:  62;

PORT HOPE        N/A     37  34  89 NE16      29.86F WCI  28
6HR MIN TEMP:  37; 6HR MAX TEMP:  48;

PORT HURON     PTCLDY    37  34  87 NE14      29.86S WCI  29
TRI CITIES     CLOUDY    44  38  79 N6        29.86R
6HR MIN TEMP:  44; 6HR MAX TEMP:  54;

YPSILANTI      CLOUDY    55  44  66 NE6       29.79S
6HR MIN TEMP:  55; 6HR MAX TEMP:  68;

$$
MIZ043>046-050>051-056>058-064>065-071>073-077>080-240100-
SOUTHWEST LOWER MICHIGAN

CITY           SKY/WX    TMP DP  RH WIND       PRES   REMARKS
BATTLE CREEK   MOCLDY    50  42  74 CALM      29.80R
6HR MIN TEMP:  49; 6HR MAX TEMP:  54;

BENTON HARBOR  CLOUDY    39  34  82 CALM      29.81R
6HR MIN TEMP:  39; 6HR MAX TEMP:  42;

BIG RAPIDS     CLOUDY    39  32  77 CALM      29.86R
6HR MIN TEMP:  39; 6HR MAX TEMP:  44;

COLDWATER      CLOUDY    52  44  75 N3        29.79R
6HR MIN TEMP:  51; 6HR MAX TEMP:  61;

HOLLAND        CLOUDY    44  38  79 NW3       29.82R
6HR MIN TEMP:  41; 6HR MAX TEMP:  46;

GRAND RAPIDS   MOCLDY    48  37  65 E7        29.81R
6HR MIN TEMP:  48; 6HR MAX TEMP:  51;

KALAMAZOO      MOCLDY    49  40  71 N5        29.79F
6HR MIN TEMP:  48; 6HR MAX TEMP:  52;

MARSHALL       PTCLDY    51  43  72 N3        29.80R
6HR MIN TEMP:  51; 6HR MAX TEMP:  61;

MOUNT PLEASANT CLOUDY    41  33  74 N6        29.84S
6HR MIN TEMP:  41; 6HR MAX TEMP:  51;

MUSKEGON       CLOUDY    45  35  68 N8        29.84R
6HR MIN TEMP:  45; 6HR MAX TEMP:  52;

STURGIS        MOCLDY    49  43  79 N5        29.78R
6HR MIN TEMP:  49; 6HR MAX TEMP:  58;

$$
MIZ016>042-240100-
NORTHERN LOWER MICHIGAN

CITY           SKY/WX    TMP DP  RH WIND       PRES   REMARKS
ALPENA         CLOUDY    37  31  78 N9        29.90R WCI  30
6HR MIN TEMP:  37; 6HR MAX TEMP:  43;

BEAVER ISLAND  CLEAR     32  23  70 N5        29.93R WCI  27
6HR MIN TEMP:  32; 6HR MAX TEMP:  39;

BELLAIRE       PTCLDY    33  29  87 CALM      29.91R
6HR MIN TEMP:  33; 6HR MAX TEMP:  38;

CADILLAC       CLOUDY    34  29  82 N5        29.86R WCI  30
CHARLEVOIX     PTCLDY    33  29  84 N3        29.94R
6HR MIN TEMP:  33; 6HR MAX TEMP:  39;

GAYLORD        PTCLDY    35  25  66 N3        29.87R
6HR MIN TEMP:  35; 6HR MAX TEMP:  38;

HOUGHTON LAKE  PTCLDY    36  29  75 N6        29.86R WCI  31
6HR MIN TEMP:  36; 6HR MAX TEMP:  40;

MANISTEE       CLOUDY    38  29  70 N7        29.89S WCI  33
OSCODA         CLOUDY    39  32  75 NE3       29.88R
6HR MIN TEMP:  39; 6HR MAX TEMP:  53;

PELLSTON       CLEAR     32  24  72 N6        29.91R WCI  26
6HR MIN TEMP:  32; 6HR MAX TEMP:  40;

TRAVERSE CITY  MOCLDY    37  28  70 N8        29.90R WCI  31
6HR MIN TEMP:  36; 6HR MAX TEMP:  40;

LUDINGTON      CLOUDY    37  33  85 N7        29.87S WCI  31
6HR MIN TEMP:  37; 6HR MAX TEMP:  39;

$$
MIZ007>008-015-240100-
EASTERN UPPER MICHIGAN

CITY           SKY/WX    TMP DP  RH WIND       PRES   REMARKS
KINROSS        PTCLDY    29  22  75 NW8       29.91R WCI  21
6HR MIN TEMP:  29; 6HR MAX TEMP:  36;

MACKINAC ISLAN CLEAR     31  25  79 N12G18    29.90R WCI  22
6HR MIN TEMP:  31; 6HR MAX TEMP:  38;

NEWBERRY       CLOUDY    30  21  69 N3        29.91S
6HR MIN TEMP:  30; 6HR MAX TEMP:  35;

S. S. MARIE    CLEAR     31  22  69 NW7       29.91R WCI  24
6HR MIN TEMP:  31; 6HR MAX TEMP:  38;

$$
MIZ004>006-011>014-085-240100-
CENTRAL UPPER MICHIGAN

CITY           SKY/WX    TMP DP  RH WIND       PRES   REMARKS
MANISTIQUE     CLEAR     30  23  73 N5        29.93R WCI  25
6HR MIN TEMP:  30; 6HR MAX TEMP:  39;

ESCANABA       CLOUDY    35  24  64 N5        29.93R WCI  31
6HR MIN TEMP:  35; 6HR MAX TEMP:  39;

MENOMINEE      CLOUDY    34  27  75 E12       29.93R WCI  25
6HR MIN TEMP:  34; 6HR MAX TEMP:  42;

SAWYER-GWINN   MOCLDY    30  25  80 NE7       29.90R WCI  23
$$
MIZ001>003-009>011-084-240100-
WESTERN UPPER MICHIGAN

CITY           SKY/WX    TMP DP  RH WIND       PRES   REMARKS
IRON MOUNTAIN  PTCLDY    31  22  69 N7        29.88R WCI  24
6HR MIN TEMP:  31; 6HR MAX TEMP:  38;

HOUGHTON       PTCLDY    29  20  69 W12       29.91R WCI  19
6HR MIN TEMP:  29; 6HR MAX TEMP:  34;

COPPER HARBOR    N/A     32  24  72 N7        29.92R WCI  26
6HR MIN TEMP:  32; 6HR MAX TEMP:  35;

IRONWOOD       CLOUDY    27  24  89 NW3       29.93S
6HR MIN TEMP:  27; 6HR MAX TEMP:  33;

$$

ABBREVIATIONS USED IN REMARKS
   TC - TEMPERATURE IN CELSIUS
  WCI - WIND CHILL INDEX
   HX - HEAT INDEX
  VSB - VISIBILITY




USA.gov is the U.S. government's official web portal to all federal, state and local government web resources and services.